Location: Melbourne
(37.8170°S, 144.9670°E)
Time: 15:43:53
(UTC+11:00)

Aureole 2 Rocket - Visible Passes

Search period start: 10 February 2016 00:00
Search period end: 20 February 2016 00:00
Orbit: 337 x 639 km, 73.9° (Epoch: 09 February)

Date Brightness Start Highest point End Pass type
(mag) Time Alt. Az. Time Alt. Az. Time Alt. Az.
15 Feb 5.5 05:58:41 10° NNE 06:02:24 24° E 06:06:06 10° SE visible
16 Feb 5.8 05:35:13 10° NE 05:38:21 18° E 05:41:29 10° SE visible
17 Feb 6.0 05:12:01 10° NE 05:14:16 14° E 05:16:31 10° ESE visible
18 Feb 3.1 06:21:01 10° NNW 06:25:38 73° WSW 06:30:09 10° SSE visible
19 Feb 3.2 05:56:44 10° NNW 06:01:20 83° ENE 06:05:51 10° SSE visible
